Location: Fort Worth, Tx
(32.7431°N, 97.3695°W)
Time: 13:58:30
(UTC-04:00)

Tiros 1 - Pass Details

Date: 03 March 2024
Orbit: 625 x 657 km, 48.4° (Epoch: 11 April)

Event Time Altitude Azimuth Distance (km) Brightness Sun altitude
Rises 21:20:09 0° 291° (WNW) 2,967 11.9 -24.2°
Reaches altitude 10° 21:23:38 10° 317° (NW) 2,062 10.4 -24.9°
Maximum altitude 21:26:05 14° 348° (NNW) 1,817 9.7 -25.4°
Enters shadow 21:27:43 12° 10° (N) 1,931 9.6 -25.7°
